Home > Weather > Niterói > Past weeks

Flag for Brazil Past Weather in Niterói, Rio de Janeiro, Brazil — Yesterday and Last 2 Weeks

Now
70 °F

Passing clouds.


Feels Like: 70 °F
Forecast: 64 / 71 °F
Wind: 6 mph from West

Location: Rio De Janeiro Airport

Current Time: Jul 28, 2016 at 12:00:10 AM

Latest Report: Jul 27, 2016 at 11:00 PM


Visibility: N/A

Pressure: 30.15 "Hg

Humidity: 69%

Dew Point: 59 °F

Location of NiteróiLocation

Past Weather in Niterói — Graph

°F

Niterói Temperature Yesterday

Maximum temperature yesterday: 91 °F (at 1:00 PM)
Minimum temperature yesterday: 68 °F (at 6:00 AM)
Average temperature yesterday: 75 °F

High & Low Weather Summary for the Past Weeks

 TemperatureHumidityPressure
High91 °F (Jul 27, 1:00 PM)100% (Jul 15, 2:00 AM)30.24 "Hg (Jul 15, 2:00 AM)
Low61 °F (Jul 19, 6:00 AM)38% (Jul 14, 3:00 PM)29.71 "Hg (Jul 16, 2:00 PM)
Average71 °F73%30.06 "Hg
* Reported Jul 12 11:00 PM — Jul 27 11:00 PM, Niterói, Weather by CustomWeather, © 2016

Note: Actual official high and low records may vary slightly from our data, if they occured in-between our weather recording intervals... More about our weather records

Advertising

Niterói Weather History for the Previous 24 Hours

Scroll right to see more
 ConditionsComfort  
Time TempWeatherWind HumidityBarometerVisibility
11:00 PM
Wed, Jul 27
70 °FPassing clouds.6 mph69%30.15 "HgN/A
10:00 PM70 °FClear.5 mph64%30.15 "Hg10 mi
9:00 PM72 °FClear.1 mph57%30.15 "Hg10 mi
8:00 PM72 °FClear.3 mph57%30.12 "Hg10 mi
7:00 PM73 °FClear.9 mph44%30.09 "Hg10 mi
6:00 PM73 °FClear.7 mph44%30.07 "Hg10 mi
5:00 PM77 °FClear.10 mph44%30.04 "Hg10 mi
4:00 PM79 °FSunny.20 mph51%29.98 "Hg10 mi
3:00 PM82 °FSunny.21 mph45%29.95 "Hg10 mi
2:00 PM88 °FSunny.18 mph40%29.92 "Hg10 mi
1:00 PM91 °FPassing clouds.10 mph38%29.92 "HgN/A
12:00 PM84 °FPassing clouds.10 mph55%29.92 "HgN/A
11:00 AM81 °FSunny.8 mph66%29.95 "Hg10 mi
10:00 AM77 °FSunny.8 mph74%29.98 "Hg10 mi
9:00 AM75 °FSunny.9 mph78%29.98 "Hg10 mi
8:00 AM73 °FSunny.7 mph83%29.95 "Hg10 mi
7:00 AM70 °FSunny.8 mph88%29.95 "Hg10 mi
6:00 AM68 °FSunny.7 mph88%29.92 "Hg10 mi
5:00 AM70 °FClear.7 mph78%29.92 "Hg10 mi
4:00 AM70 °FClear.8 mph83%29.92 "Hg10 mi
3:00 AM70 °FClear.7 mph88%29.95 "Hg10 mi
2:00 AM70 °FClear.3 mph88%29.98 "Hg10 mi
1:00 AM72 °FClear.6 mph78%29.98 "Hg10 mi
12:00 AM72 °FClear.6 mph78%30.01 "Hg10 mi
Weather by CustomWeather, © 2016

See weather overviewHow to use our weather pages